Simultaneous Nadir Overpasses (SNOs) Predictions

Prediction of SNOs between GOES-16 and NOAA-20 Satellite Orbit:

Table of predicted SNOs for the next 14.0 days since TLE Epoch: 11/4/2023
Index Date Time (GOES-16) GOES-16 Lat,Lon NOAA-20 Lat,Lon Distance(km) Time Diff (sec)
1 11/04/2023 06:44:55 0.02, -75.20 0.97, -79.45 483.99 80
2 11/05/2023 06:23:31 0.02, -75.20 -0.05, -74.92 32.27 80
3 11/07/2023 18:26:46 -0.02, -75.23 -0.10, -75.71 54.10 80
4 11/08/2023 18:10:42 -0.02, -75.25 0.87, -71.18 463.14 80
5 11/10/2023 06:32:31 0.01, -75.25 0.29, -76.46 137.42 80
6 11/11/2023 06:11:08 0.02, -75.26 -0.74, -71.93 379.90 80
7 11/12/2023 18:33:05 -0.01, -75.29 -0.47, -77.24 222.11 80
8 11/13/2023 18:17:01 -0.02, -75.31 0.56, -72.72 295.50 80
9 11/15/2023 06:38:51 0.01, -75.32 0.58, -78.00 304.40 80
10 11/16/2023 06:17:26 0.01, -75.33 -0.39, -73.46 212.97 80
11 11/17/2023 18:39:25 -0.01, -75.36 -0.75, -78.78 389.23 80
